User: anonymous   Login
Location: Unspecified
(0.0000°N, 0.0000°E)
Time: 00:55:31
(UTC+00:00)
Language:

STARLINK-34867 - Orbit

View from above orbital plane
View from above orbital plane
View from above satellite
View from above satellite

Ground track
Ground track

The orbit is defined by the following mean orbital elements,

1 65459U          26145.33335647 +.00000000 +00000-0 +10395-2 0 00004
2 65459  53.1583 261.9627 0001453 100.3958 174.0884 15.34381999    02
Epoch (UTC): 25 May 2026 08:00:01
Eccentricity: 0.0001453
inclination: 53.1583°
perigee height: 462 km
apogee height: 464 km
right ascension of ascending node: 261.9627°
argument of perigee: 100.3958°
revolutions per day: 15.34381999
mean anomaly at epoch: 174.0884°

The dashed part of the orbit path shows where the satellite is in the earth's shadow,  

DLR